Orbital Elements at Epoch 2459000.5 (2020-May-31.0) TDB
Reference: JPL 10 (heliocentric ecliptic J2000)
Element | Value | Uncertainty (1-sigma) | Units |
e | .2044676672051207 | 5.9924e-08 | |
a | 2.317185812716033 | 1.4215e-08 | au |
q | 1.843396235109184 | 1.363e-07 | au |
i | 3.90893673180824 | 8.1564e-06 | deg |
node | 47.12044020202028 | 0.00013278 | deg |
peri | 228.8989419557191 | 0.00013524 | deg |
M | 53.91224197172108 | 2.675e-05 | deg |
tp | 2458807.558962329349 (2019-Nov-20.05896233) | 9.5122e-05 | TDB |
period | 1288.367372996059 3.53 | 1.1855e-05 3.246e-08 | d yr |
n | .2794234063556196 | 2.5712e-09 | deg/d |
Q | 2.790975390322881 | 1.7121e-08 | au |
|
| | Orbit Determination Parameters
Additional Information
|